Showing default

ORBCOMM FM 103, 40091

Orbit data source: Space-Track

ORBCOMM FM 103, 40091 is a payload satellite owned by Orbcomm (US) in LEO that was launched on Mon, 14 Jul 2014 UTC via an FALCON 9 launch vehicle from the Air Force Eastern Test Range (AFETR). Payloads include a variety of satellites, spacecraft, and rockets equipped with specific instruments for various scientific and technological missions. These include communications satellites like Starlink; space stations such as the ISS; scientific satellites like the Hubble; Earth observation satellites from companies like Planet Labs, Umbra, and HawkEye 360; GPS; miniature CubeSats for education and research; and military/defense satellites.

Loading next visibility...
ORBCOMM FM 103 details
Identifier
40091, 2014-040F
Orbit
LEO
Last TLE update15 hours ago
Origin
Flag of USOrbcomm (US / ORB)
ManufacturerSNC Louisville
MissionNon-operational Commercial Communications
Bus & MotorSN-100A, Unknown motor
Mass172 kg wet, 158 kg dry
Launch date (UTC)
2014-07-14 (10 years ago)
Launch vehicle
FALCON 9
Launch site
Air Force Eastern Test Range (AFETR)
Object type
Payload
Rocket body
Debris
Shape & HBRBox + 1 Pan + 1 Ant, 13 m
Radar Cross Section2.222 m², Medium (>0.1 m² and < 1m²)

Expand to show TLE details & history

TLE from 15 hours ago
0 ORBCOMM FM 103
1 40091U 14040F   24361.00993834  .00002317  00000-0  54037-3 0  9990
2 40091  47.0041 115.3432 0002762 224.3519 135.7145 14.57600335538831
Epoch: 2024-12-26T00:14Z
Definitive object data (Epoch: 2024-12-26T00:14:18.672Z)
Latitude-0.00005°
Longitude16.76988°
Altitude702.548 km
Speed7.505 km/s
True Right ascension07h 41m 22s
True Declination0° 00' 00"
Sunlit
Object was in full shadow at TLE epoch
Visualization TLE readout
Latitude-8.84488°
Longitude5.57148°
Altitude703.713 km
Speed7.504 km/s
Apparent Right ascension05h 06m 30s
Apparent Declination-27° 31' 51"
Sunlit
Object is in full shadow
Visualization observer readout
Local Sidereal Time14:21:17
Azimuth277.102° WNW
Elevation-53.855°
Doppler factor1
Orbital elements
Apogee altitude704.122 km
Perigee altitude700.211 km
Semi-major axis7,080.304 km
Eccentricity0.0002762
Inclination47.0041°
RAAN115.3432°
Arg. of periapsis224.3519°
True anomaly135.73659°
Mean anomaly135.7145°
Eccentric anomaly135.72555°
Mean motion3.64305 °/min
BSTAR0.00054037
Orbital period98.82 mins
Loading maneuver chart data...
Loading historical data...
Loading historical data...
Loading historical data...
Loading historical data...
Loading historical data...
Loading historical data...
Loading historical data...

ORBCOMM FM 103 Visibility forecast

Observer location: undefined°, undefined

Span
Click to sort rows by Start time (UTC) header in descending order
Start Az.
Max El. time (UTC)
Max El. Az.
Max El.
End time (UTC)
End Az.
9 mins2024-12-26 15:27:21.443Z303.02° NW2024-12-26 15:31:21.443Z0.197° NNE35.93°2024-12-26 15:36:21.443Z90.03° ESE
7 mins2024-12-26 17:12:21.443Z287.229° WNW2024-12-26 17:15:21.443Z220.828° SW40.709°2024-12-26 17:19:21.443Z138.282° SSE
5 mins2024-12-27 09:18:21.443Z163.682° S2024-12-27 09:20:21.443Z135.273° SSE17.56°2024-12-27 09:23:21.443Z95.231° ESE
8 mins2024-12-27 11:00:21.443Z234.521° WSW2024-12-27 11:03:21.443Z172.171° S44.606°2024-12-27 11:08:21.443Z63.271° ENE
7 mins2024-12-27 12:44:21.443Z287.983° WNW2024-12-27 12:47:21.443Z348.844° N33.553°2024-12-27 12:51:21.443Z56.065° ENE
7 mins2024-12-27 14:28:21.443Z307.533° NW2024-12-27 14:31:21.443Z359.461° N32.118°2024-12-27 14:35:21.443Z73.066° E
|